KOR12 ZYTL-ZKPY

Flight info

Callsign KOR12
Flight time 0h 41m
Altitude 31100
Route SAN09D SANKO B332 PONIL W1 SASRI SAS11A
Aircraft B738/M-SDE2E3FGHIRWXY/LB1

Departure

Time 2026-05-06 08:27
Airport Dalian Zhoushuizi International Airport (ZYTL)

Arrival

Time 2026-05-06 09:08
Airport Pyongyang Sunan International Airport (ZKPY)
Time Latitude Longitude Altitude Speed Heading
2026-05-06 08:05 38.96231 121.54190 113 ft 0 kts 182°
2026-05-06 08:18 38.96233 121.54190 113 ft 1 kts 182°
2026-05-06 08:18 38.96248 121.54191 113 ft 2 kts 182°
2026-05-06 08:18 38.96263 121.54192 113 ft 2 kts 182°
2026-05-06 08:18 38.96278 121.54192 113 ft 2 kts 182°
2026-05-06 08:19 38.96292 121.54192 113 ft 2 kts 182°
2026-05-06 08:19 38.96308 121.54193 113 ft 2 kts 182°
2026-05-06 08:19 38.96323 121.54194 113 ft 2 kts 182°
2026-05-06 08:19 38.96338 121.54195 113 ft 2 kts 185°
2026-05-06 08:20 38.96352 121.54202 113 ft 2 kts 220°
2026-05-06 08:20 38.96361 121.54217 113 ft 2 kts 248°
2026-05-06 08:20 38.96364 121.54234 113 ft 0 kts 272°
2026-05-06 08:20 38.96363 121.54242 113 ft 1 kts 278°
2026-05-06 08:21 38.96363 121.54244 113 ft 0 kts 277°
2026-05-06 08:22 38.96363 121.54243 113 ft 1 kts 277°
2026-05-06 08:22 38.96372 121.54138 113 ft 18 kts 277°
2026-05-06 08:22 38.96382 121.53986 113 ft 20 kts 276°
2026-05-06 08:22 38.96397 121.53791 113 ft 20 kts 276°
2026-05-06 08:23 38.96411 121.53624 113 ft 16 kts 276°
2026-05-06 08:23 38.96423 121.53483 113 ft 18 kts 277°
2026-05-06 08:23 38.96431 121.53324 113 ft 19 kts 269°
2026-05-06 08:23 38.96423 121.53165 113 ft 17 kts 273°
2026-05-06 08:24 38.96436 121.53031 113 ft 13 kts 278°
2026-05-06 08:24 38.96444 121.52931 113 ft 9 kts 271°
2026-05-06 08:24 38.96447 121.52846 113 ft 10 kts 274°
2026-05-06 08:24 38.96464 121.52661 113 ft 23 kts 278°
2026-05-06 08:25 38.96476 121.52473 113 ft 19 kts 275°
2026-05-06 08:25 38.96490 121.52272 113 ft 28 kts 275°
2026-05-06 08:25 38.96507 121.52024 113 ft 25 kts 277°
2026-05-06 08:25 38.96614 121.51955 113 ft 18 kts
2026-05-06 08:26 38.96708 121.52027 113 ft 18 kts 84°
2026-05-06 08:26 38.96698 121.52196 113 ft 34 kts 95°
2026-05-06 08:26 38.96646 121.52904 113 ft 120 kts 98°
2026-05-06 08:26 38.96547 121.54267 197 ft 179 kts 95°
2026-05-06 08:27 38.96462 121.55776 1344 ft 169 kts 97°
2026-05-06 08:27 38.96468 121.57219 2283 ft 168 kts 97°
2026-05-06 08:27 38.96413 121.58805 2727 ft 191 kts 99°
2026-05-06 08:27 38.96311 121.60668 3017 ft 227 kts 99°
2026-05-06 08:28 38.96170 121.62750 3640 ft 246 kts 101°
2026-05-06 08:28 38.95974 121.64966 4463 ft 256 kts 101°
2026-05-06 08:28 38.95752 121.67265 5339 ft 264 kts 101°
2026-05-06 08:28 38.95497 121.69618 6267 ft 271 kts 102°
2026-05-06 08:29 38.95305 121.72013 7124 ft 280 kts 86°
2026-05-06 08:29 38.95930 121.74375 7911 ft 287 kts 52°
2026-05-06 08:29 38.97439 121.75948 8822 ft 281 kts 18°
2026-05-06 08:29 38.99307 121.76252 9689 ft 272 kts 345°
2026-05-06 08:30 39.01117 121.75644 10612 ft 268 kts 337°
2026-05-06 08:30 39.02760 121.74580 11243 ft 267 kts 312°
2026-05-06 08:30 39.03763 121.72697 12026 ft 258 kts 289°
2026-05-06 08:30 39.04305 121.70424 12475 ft 271 kts 276°
2026-05-06 08:31 39.04494 121.68004 13189 ft 276 kts 273°
2026-05-06 08:31 39.04663 121.65553 13916 ft 279 kts 274°
2026-05-06 08:31 39.04868 121.63078 14607 ft 283 kts 274°
2026-05-06 08:31 39.05068 121.60532 15297 ft 287 kts 274°
2026-05-06 08:32 39.05103 121.57994 16074 ft 286 kts 261°
2026-05-06 08:32 39.04333 121.55611 16602 ft 297 kts 234°
2026-05-06 08:32 39.02674 121.54060 17341 ft 308 kts 205°
2026-05-06 08:32 39.00493 121.53652 17926 ft 325 kts 184°
2026-05-06 08:33 38.98242 121.53830 18564 ft 330 kts 180°
2026-05-06 08:33 38.95977 121.54618 19001 ft 351 kts 159°
2026-05-06 08:33 38.93943 121.56514 19180 ft 379 kts 140°
2026-05-06 08:33 38.92103 121.59129 19261 ft 401 kts 136°
2026-05-06 08:34 38.90193 121.61823 19329 ft 418 kts 138°
2026-05-06 08:34 38.85985 121.67295 19929 ft 437 kts 144°
2026-05-06 08:34 38.83614 121.69714 20439 ft 439 kts 147°
2026-05-06 08:35 38.81167 121.72137 20835 ft 445 kts 147°
2026-05-06 08:35 38.78702 121.74622 21355 ft 449 kts 147°
2026-05-06 08:35 38.76234 121.77104 21815 ft 453 kts 147°
2026-05-06 08:35 38.73754 121.79597 22253 ft 456 kts 147°
2026-05-06 08:36 38.71278 121.82083 22695 ft 458 kts 147°
2026-05-06 08:36 38.68749 121.84613 23007 ft 464 kts 147°
2026-05-06 08:36 38.66210 121.87148 23508 ft 465 kts 147°
2026-05-06 08:36 38.63647 121.89705 23906 ft 469 kts 147°
2026-05-06 08:37 38.61077 121.92255 24299 ft 472 kts 147°
2026-05-06 08:37 38.58453 121.94870 24678 ft 475 kts 148°
2026-05-06 08:37 38.55854 121.97456 25035 ft 478 kts 148°
2026-05-06 08:37 38.53223 122.00072 25425 ft 481 kts 148°
2026-05-06 08:38 38.50534 122.02722 25771 ft 484 kts 148°
2026-05-06 08:38 38.47892 122.05345 26184 ft 486 kts 148°
2026-05-06 08:38 38.45222 122.07991 26378 ft 492 kts 148°
2026-05-06 08:38 38.42507 122.10662 26783 ft 492 kts 148°
2026-05-06 08:39 38.39817 122.13322 26940 ft 483 kts 148°
2026-05-06 08:39 38.37142 122.15967 26928 ft 481 kts 148°
2026-05-06 08:39 38.34498 122.18565 26932 ft 486 kts 148°
2026-05-06 08:39 38.31921 122.21387 26928 ft 495 kts 139°
2026-05-06 08:40 38.29695 122.24802 26933 ft 504 kts 129°
2026-05-06 08:40 38.27933 122.28662 26936 ft 507 kts 117°
2026-05-06 08:40 38.26815 122.32931 26934 ft 509 kts 104°
2026-05-06 08:40 38.26170 122.37337 26944 ft 513 kts 99°
2026-05-06 08:41 38.25829 122.41844 26953 ft 517 kts 92°
2026-05-06 08:41 38.25919 122.46386 26943 ft 515 kts 82°
2026-05-06 08:41 38.26727 122.50809 26956 ft 509 kts 69°
2026-05-06 08:41 38.27996 122.54977 26964 ft 508 kts 65°
2026-05-06 08:42 38.29321 122.59134 26958 ft 511 kts 65°
2026-05-06 08:42 38.30624 122.63361 26960 ft 512 kts 66°
2026-05-06 08:42 38.31927 122.67621 26959 ft 510 kts 66°
2026-05-06 08:42 38.33204 122.71791 26966 ft 507 kts 66°
2026-05-06 08:43 38.34498 122.76019 26958 ft 508 kts 67°
2026-05-06 08:43 38.35777 122.80206 26964 ft 508 kts 66°
2026-05-06 08:43 38.37060 122.84409 26966 ft 509 kts 66°
2026-05-06 08:43 38.38345 122.88608 26962 ft 511 kts 66°
2026-05-06 08:44 38.39649 122.92869 26960 ft 510 kts 66°
2026-05-06 08:44 38.40932 122.97080 26969 ft 509 kts 66°
2026-05-06 08:44 38.42202 123.01271 26966 ft 507 kts 66°
2026-05-06 08:44 38.43487 123.05503 26974 ft 508 kts 66°
2026-05-06 08:45 38.44751 123.09679 26969 ft 508 kts 66°
2026-05-06 08:45 38.46028 123.13904 26961 ft 508 kts 66°
2026-05-06 08:45 38.47292 123.18074 26965 ft 507 kts 66°
2026-05-06 08:45 38.48579 123.22330 26956 ft 508 kts 66°
2026-05-06 08:46 38.49849 123.26545 26958 ft 507 kts 66°
2026-05-06 08:46 38.51120 123.30763 26951 ft 509 kts 66°
2026-05-06 08:46 38.52377 123.34947 26954 ft 508 kts 66°
2026-05-06 08:46 38.53631 123.39156 26960 ft 507 kts 66°
2026-05-06 08:47 38.54906 123.43400 26963 ft 507 kts 66°
2026-05-06 08:47 38.56166 123.47608 26959 ft 506 kts 66°
2026-05-06 08:47 38.57415 123.51794 26958 ft 506 kts 66°
2026-05-06 08:47 38.58669 123.55988 26965 ft 507 kts 66°
2026-05-06 08:48 38.59929 123.60207 26970 ft 506 kts 66°
2026-05-06 08:48 38.61176 123.64409 26967 ft 507 kts 66°
2026-05-06 08:48 38.62423 123.68622 26957 ft 507 kts 66°
2026-05-06 08:48 38.63667 123.72819 26968 ft 506 kts 66°
2026-05-06 08:49 38.64906 123.77006 26970 ft 507 kts 67°
2026-05-06 08:49 38.66151 123.81205 26968 ft 506 kts 66°
2026-05-06 08:49 38.67407 123.85445 26967 ft 505 kts 67°
2026-05-06 08:49 38.68635 123.89611 26972 ft 506 kts 67°
2026-05-06 08:50 38.69904 123.93839 26964 ft 508 kts 65°
2026-05-06 08:50 38.71297 123.97975 26965 ft 508 kts 62°
2026-05-06 08:50 38.72994 124.01949 26963 ft 503 kts 53°
2026-05-06 08:50 38.74942 124.05673 26973 ft 499 kts 51°
2026-05-06 08:51 38.76896 124.09318 26977 ft 498 kts 52°
2026-05-06 08:51 38.78841 124.12986 26976 ft 497 kts 51°
2026-05-06 08:51 38.80770 124.16624 26973 ft 497 kts 51°
2026-05-06 08:51 38.82685 124.20338 26970 ft 501 kts 56°
2026-05-06 08:52 38.84188 124.24393 26982 ft 504 kts 65°
2026-05-06 08:52 38.85413 124.28611 26968 ft 506 kts 71°
2026-05-06 08:52 38.86279 124.32958 26269 ft 509 kts 76°
2026-05-06 08:52 38.86961 124.37352 25481 ft 507 kts 77°
2026-05-06 08:53 38.87649 124.41756 24733 ft 497 kts 77°
2026-05-06 08:53 38.88351 124.46106 23746 ft 500 kts 76°
2026-05-06 08:53 38.89042 124.50453 23062 ft 497 kts 77°
2026-05-06 08:53 38.89731 124.54782 22105 ft 499 kts 77°
2026-05-06 08:54 38.90416 124.59105 21439 ft 493 kts 77°
2026-05-06 08:54 38.91090 124.63384 20795 ft 486 kts 77°
2026-05-06 08:54 38.91750 124.67590 20113 ft 480 kts 78°
2026-05-06 08:54 38.92392 124.71723 19366 ft 476 kts 78°
2026-05-06 08:55 38.93025 124.75816 18112 ft 463 kts 79°
2026-05-06 08:55 38.93643 124.79806 16404 ft 452 kts 79°
2026-05-06 08:55 38.94247 124.83749 15097 ft 443 kts 78°
2026-05-06 08:55 38.94822 124.87556 13605 ft 437 kts 78°
2026-05-06 08:56 38.95401 124.91367 12792 ft 431 kts 79°
2026-05-06 08:56 38.95965 124.95081 12427 ft 419 kts 78°
2026-05-06 08:56 38.96517 124.98749 12189 ft 420 kts 78°
2026-05-06 08:56 38.97081 125.02461 11763 ft 422 kts 79°
2026-05-06 08:57 38.97648 125.06136 11213 ft 412 kts 79°
2026-05-06 08:57 38.98183 125.09660 10948 ft 397 kts 79°
2026-05-06 08:57 38.98692 125.13067 10847 ft 379 kts 79°
2026-05-06 08:57 38.99177 125.16303 10724 ft 362 kts 79°
2026-05-06 08:58 38.99642 125.19409 10541 ft 347 kts 79°
2026-05-06 08:58 39.00093 125.22424 10392 ft 334 kts 79°
2026-05-06 08:58 39.00525 125.25304 10121 ft 328 kts 79°
2026-05-06 08:58 39.00952 125.28164 9687 ft 327 kts 79°
2026-05-06 08:59 39.01375 125.31013 9262 ft 326 kts 79°
2026-05-06 08:59 39.01803 125.33897 8795 ft 325 kts 80°
2026-05-06 08:59 39.02258 125.36715 8382 ft 319 kts 74°
2026-05-06 08:59 39.03171 125.39253 7996 ft 316 kts 52°
2026-05-06 09:00 39.04731 125.41120 7924 ft 296 kts 30°
2026-05-06 09:00 39.06460 125.42453 7961 ft 290 kts 27°
2026-05-06 09:00 39.08189 125.43806 7891 ft 289 kts 29°
2026-05-06 09:00 39.09897 125.45177 7626 ft 285 kts 28°
2026-05-06 09:01 39.11601 125.46529 7276 ft 289 kts 28°
2026-05-06 09:01 39.13341 125.47907 6879 ft 292 kts 29°
2026-05-06 09:01 39.15067 125.49270 6485 ft 292 kts 29°
2026-05-06 09:01 39.16801 125.50648 6112 ft 292 kts 29°
2026-05-06 09:02 39.18534 125.52015 5748 ft 293 kts 29°
2026-05-06 09:02 39.20281 125.53397 5341 ft 293 kts 28°
2026-05-06 09:02 39.22111 125.54414 5056 ft 283 kts
2026-05-06 09:02 39.24017 125.54458 4773 ft 270 kts 342°
2026-05-06 09:03 39.25800 125.53751 4355 ft 269 kts 335°
2026-05-06 09:03 39.27583 125.53017 3987 ft 268 kts 338°
2026-05-06 09:03 39.29348 125.52338 3829 ft 259 kts 341°
2026-05-06 09:03 39.31117 125.52190 3758 ft 255 kts
2026-05-06 09:04 39.32709 125.53149 3610 ft 251 kts 40°
2026-05-06 09:04 39.33749 125.54954 3260 ft 251 kts 70°
2026-05-06 09:04 39.34267 125.57078 2963 ft 248 kts 79°
2026-05-06 09:04 39.34402 125.59199 2626 ft 228 kts 105°
2026-05-06 09:05 39.33824 125.60947 2459 ft 194 kts 136°
2026-05-06 09:05 39.32910 125.62001 2462 ft 159 kts 155°
2026-05-06 09:05 39.31981 125.62528 2484 ft 144 kts 172°
2026-05-06 09:05 39.30981 125.62910 2373 ft 158 kts 167°
2026-05-06 09:06 39.29930 125.63419 1871 ft 162 kts 163°
2026-05-06 09:06 39.28910 125.63850 1557 ft 148 kts 176°
2026-05-06 09:06 39.27921 125.64125 1360 ft 146 kts 166°
2026-05-06 09:06 39.26943 125.64510 1152 ft 147 kts 168°
2026-05-06 09:07 39.25969 125.64899 948 ft 143 kts 168°
2026-05-06 09:07 39.25062 125.65262 769 ft 133 kts 168°
2026-05-06 09:07 39.24166 125.65614 598 ft 136 kts 167°
2026-05-06 09:07 39.23259 125.65970 410 ft 136 kts 166°
2026-05-06 09:08 39.22350 125.66321 246 ft 137 kts 166°
2026-05-06 09:08 39.21465 125.66677 128 ft 122 kts 166°
2026-05-06 09:08 39.20898 125.66888 128 ft 51 kts 165°
2026-05-06 09:08 39.20617 125.66997 128 ft 36 kts 165°
2026-05-06 09:09 39.20409 125.67084 128 ft 22 kts 162°
2026-05-06 09:09 39.20316 125.67190 128 ft 14 kts 124°
2026-05-06 09:09 39.20263 125.67287 128 ft 11 kts 125°
2026-05-06 09:09 39.20221 125.67355 128 ft 7 kts 135°
2026-05-06 09:10 39.20195 125.67393 128 ft 4 kts 130°
2026-05-06 09:10 39.20182 125.67412 128 ft 1 kts 132°
2026-05-06 09:10 39.20150 125.67440 128 ft 8 kts 146°
2026-05-06 09:10 39.20113 125.67466 128 ft 4 kts 158°
2026-05-06 09:11 39.20082 125.67482 128 ft 8 kts 159°
2026-05-06 09:11 39.20042 125.67505 128 ft 4 kts 130°
2026-05-06 09:11 39.20039 125.67530 128 ft 2 kts 69°
2026-05-06 09:11 39.20047 125.67557 128 ft 2 kts 73°
2026-05-06 09:12 39.20049 125.67567 128 ft 0 kts 72°